START_TIME,STEP,MOV.,M34,t_acc.,L5,t_acc.,L18,t_acc.,L14,t_acc.
1979-07-03 18:00:25.550 ,0,1,0.,12.0,0.,12.0,0.,12.0,0.,12.0
1979-07-03 18:00:37.550 ,0,1,0.,12.0,0.,12.0,0.,12.0,0.,12.0
1979-07-03 18:00:49.550 ,3,1,0.,12.0,0.,12.0,0.,12.0,0.,12.0
1979-07-03 18:01:01.550 ,3,1,0.,12.0,0.,12.0,0.,12.0,0.,12.0
1979-07-03 18:01:13.550 ,7,1,0.,12.0,0.,12.0,0.,12.0,0.,12.0
1979-07-03 18:01:25.550 ,7,1,0.,12.0,0.,12.0,0.,12.0,0.,12.0
1979-07-03 18:01:37.550 ,4,1,0.,12.0,0.,12.0,0.,12.0,0.,12.0
1979-07-03 18:01:49.550 ,4,1,0.,12.0,0.,12.0,0.,12.0,0.,12.0
1979-07-03 18:02:01.550 ,0,1,0.,12.0,0.,12.0,0.,12.0,0.,12.0
1979-07-03 18:02:13.550 ,0,1,0.,12.0,0.,12.0,0.,12.0,0.,12.0
1979-07-03 18:02:25.550 ,3,1,0.,12.0,0.,12.0,0.,12.0,0.,12.0
1979-07-03 18:02:37.550 ,3,1,0.,12.0,0.,12.0,0.,12.0,0.,12.0
1979-07-03 18:02:49.550 ,7,1,0.,12.0,0.,12.0,0.,12.0,0.,12.0
1979-07-03 18:03:01.550 ,7,1,0.,12.0,0.,12.0,0.,12.0,0.,12.0
1979-07-03 18:03:13.550 ,4,1,0.,12.0,0.,12.0,0.,12.0,0.,12.0
1979-07-03 18:03:25.550 ,4,1,0.,12.0,0.,12.0,0.,12.0,0.,12.0
1979-07-03 18:03:37.550 ,0,1,0.,12.0,0.,12.0,0.,12.0,0.,12.0
1979-07-03 18:03:49.550 ,0,1,0.,12.0,0.,12.0,0.,12.0,0.,12.0
1979-07-03 18:04:01.550 ,3,1,0.,12.0,0.,12.0,0.,12.0,0.,12.0
1979-07-03 18:04:13.550 ,3,1,0.,12.0,0.,12.0,0.,12.0,0.,12.0
1979-07-03 18:04:25.550 ,7,1,1.,12.0,0.,12.0,0.,12.0,0.,12.0
1979-07-03 18:04:37.550 ,7,1,0.,12.0,0.,12.0,0.,12.0,0.,12.0
1979-07-03 18:04:49.550 ,4,1,0.,12.0,0.,12.0,0.,12.0,0.,12.0
1979-07-03 18:05:01.550 ,4,1,0.,12.0,0.,12.0,0.,12.0,0.,12.0
1979-07-03 18:05:13.550 ,0,1,0.,12.0,0.,12.0,0.,12.0,0.,12.0
1979-07-03 18:05:25.550 ,0,1,0.,12.0,0.,12.0,0.,12.0,0.,12.0
1979-07-03 18:05:37.550 ,0,0,0.,12.0,0.,12.0,0.,12.0,0.,12.0
1979-07-03 18:05:49.550 ,0,0,0.,12.0,0.,12.0,0.,12.0,0.,12.0
1979-07-03 18:06:01.550 ,0,0,0.,12.0,0.,12.0,0.,12.0,0.,12.0
1979-07-03 18:06:13.550 ,0,0,0.,12.0,0.,12.0,0.,12.0,0.,12.0
1979-07-03 18:06:25.550 ,5,1,0.,12.0,0.,12.0,0.,12.0,0.,12.0
1979-07-03 18:06:37.550 ,5,1,0.,12.0,0.,12.0,0.,12.0,0.,12.0
1979-07-03 18:06:49.550 ,5,0,0.,12.0,0.,12.0,0.,12.0,0.,12.0
1979-07-03 18:07:01.550 ,5,0,0.,12.0,0.,12.0,0.,12.0,0.,12.0
1979-07-03 18:07:13.550 ,4,1,0.,12.0,0.,12.0,0.,12.0,0.,12.0
1979-07-03 18:07:25.550 ,4,1,0.,12.0,0.,12.0,0.,12.0,0.,12.0
1979-07-03 18:07:37.550 ,4,0,1.,12.0,0.,12.0,0.,12.0,0.,12.0
1979-07-03 18:07:49.550 ,4,0,0.,12.0,0.,12.0,0.,12.0,0.,12.0
1979-07-03 18:08:01.550 ,3,1,0.,12.0,0.,12.0,0.,12.0,0.,12.0
1979-07-03 18:08:13.550 ,3,1,0.,12.0,0.,12.0,0.,12.0,0.,12.0
1979-07-03 18:08:25.550 ,3,0,0.,12.0,0.,12.0,0.,12.0,0.,12.0
1979-07-03 18:08:37.550 ,3,0,0.,12.0,0.,12.0,0.,12.0,0.,12.0
1979-07-03 18:08:49.550 ,2,1,0.,12.0,0.,12.0,0.,12.0,0.,12.0
1979-07-03 18:09:01.550 ,2,1,0.,12.0,0.,12.0,0.,12.0,0.,12.0
1979-07-03 18:09:13.550 ,2,0,0.,12.0,0.,12.0,0.,12.0,0.,12.0
1979-07-03 18:09:25.550 ,2,0,0.,12.0,0.,12.0,0.,12.0,0.,12.0
1979-07-03 18:09:37.550 ,1,1,0.,12.0,0.,12.0,0.,12.0,0.,12.0
1979-07-03 18:09:49.550 ,1,1,0.,12.0,0.,12.0,0.,12.0,0.,12.0
1979-07-03 18:10:01.550 ,1,0,0.,12.0,0.,12.0,0.,12.0,0.,12.0
1979-07-03 18:10:13.550 ,1,0,0.,12.0,0.,12.0,0.,12.0,0.,12.0
1979-07-03 18:10:25.550 ,0,1,0.,12.0,0.,12.0,0.,12.0,0.,12.0
1979-07-03 18:10:37.550 ,0,1,0.,12.0,0.,12.0,0.,12.0,0.,12.0
1979-07-03 18:10:49.550 ,0,0,0.,12.0,0.,12.0,0.,12.0,0.,12.0
1979-07-03 18:11:01.550 ,0,0,0.,12.0,0.,12.0,0.,12.0,0.,12.0
1979-07-03 18:17:25.550 ,0,0,,0,,0,,0,,0
1979-07-03 18:17:37.550 ,0,0,0.,12.0,0.,12.0,0.,12.0,0.,12.0
1979-07-03 18:17:37.550 ,7,1,0.,12.0,0.,12.0,0.,12.0,0.,12.0
1979-07-03 18:17:49.550 ,7,1,0.,12.0,0.,12.0,0.,12.0,0.,12.0
1979-07-03 18:18:01.550 ,7,0,0.,12.0,0.,12.0,0.,12.0,0.,12.0
1979-07-03 18:18:13.550 ,7,0,0.,12.0,0.,12.0,0.,12.0,0.,12.0
1979-07-03 18:18:25.550 ,6,1,0.,12.0,0.,12.0,0.,12.0,0.,12.0
1979-07-03 18:18:37.550 ,6,1,0.,12.0,0.,12.0,0.,12.0,0.,12.0
1979-07-03 18:18:49.550 ,6,0,0.,12.0,0.,12.0,0.,12.0,0.,12.0
1979-07-03 18:19:01.550 ,6,0,0.,12.0,0.,12.0,0.,12.0,0.,12.0
1979-07-03 18:19:13.550 ,5,1,0.,12.0,0.,12.0,0.,12.0,0.,12.0
1979-07-03 18:19:25.550 ,5,1,0.,12.0,0.,12.0,0.,12.0,0.,12.0
1979-07-03 18:19:37.550 ,5,0,0.,12.0,0.,12.0,0.,12.0,0.,12.0
1979-07-03 18:19:49.550 ,5,0,0.,12.0,0.,12.0,0.,12.0,0.,12.0
1979-07-03 18:20:01.550 ,4,1,0.,12.0,0.,12.0,0.,12.0,0.,12.0
1979-07-03 18:20:13.550 ,4,1,0.,12.0,0.,12.0,0.,12.0,0.,12.0
1979-07-03 18:20:25.550 ,4,0,0.,12.0,0.,12.0,0.,12.0,0.,12.0
1979-07-03 18:20:37.550 ,4,0,0.,12.0,0.,12.0,0.,12.0,0.,12.0
1979-07-03 18:20:49.550 ,3,1,0.,12.0,0.,12.0,0.,12.0,1.,12.0
1979-07-03 18:21:01.550 ,3,1,0.,12.0,0.,12.0,0.,12.0,0.,12.0
1979-07-03 18:21:13.550 ,3,0,0.,12.0,0.,12.0,0.,12.0,0.,12.0
1979-07-03 18:21:25.550 ,3,0,0.,12.0,0.,12.0,0.,12.0,0.,12.0
1979-07-03 18:21:37.550 ,2,1,0.,12.0,0.,12.0,0.,12.0,0.,12.0
1979-07-03 18:21:49.550 ,2,1,0.,12.0,0.,12.0,0.,12.0,0.,12.0
1979-07-03 18:22:01.550 ,2,0,0.,12.0,0.,12.0,0.,12.0,0.,12.0
1979-07-03 18:22:13.550 ,2,0,0.,12.0,0.,12.0,0.,12.0,0.,12.0
1979-07-03 18:22:25.550 ,1,1,0.,12.0,0.,12.0,0.,12.0,0.,12.0
1979-07-03 18:22:37.550 ,1,1,0.,12.0,0.,12.0,0.,12.0,0.,12.0
1979-07-03 18:22:49.550 ,1,0,0.,12.0,0.,12.0,0.,12.0,0.,12.0
1979-07-03 18:23:01.550 ,1,0,0.,12.0,0.,12.0,0.,12.0,0.,12.0
1979-07-03 18:23:13.550 ,0,1,0.,12.0,0.,12.0,0.,12.0,0.,12.0
1979-07-03 18:23:25.550 ,0,1,0.,12.0,0.,12.0,0.,12.0,0.,12.0
1979-07-03 18:23:37.550 ,0,0,0.,12.0,0.,12.0,0.,12.0,0.,12.0
1979-07-03 18:23:49.550 ,0,0,0.,12.0,0.,12.0,0.,12.0,0.,12.0
1979-07-03 18:24:01.550 ,0,1,0.,12.0,0.,12.0,0.,12.0,0.,12.0
1979-07-03 18:24:13.550 ,0,1,0.,12.0,0.,12.0,0.,12.0,0.,12.0
1979-07-03 18:24:25.550 ,0,0,0.,12.0,0.,12.0,0.,12.0,0.,12.0
1979-07-03 18:24:37.550 ,0,0,0.,12.0,0.,12.0,0.,12.0,0.,12.0
1979-07-03 18:24:49.550 ,1,1,0.,12.0,0.,12.0,0.,12.0,0.,12.0
1979-07-03 18:25:01.550 ,1,1,0.,12.0,0.,12.0,0.,12.0,0.,12.0
1979-07-03 18:25:13.550 ,1,0,0.,12.0,0.,12.0,0.,12.0,0.,12.0
1979-07-03 18:25:25.550 ,1,0,0.,12.0,0.,12.0,0.,12.0,0.,12.0
1979-07-03 18:25:37.550 ,2,1,0.,12.0,0.,12.0,0.,12.0,0.,12.0
1979-07-03 18:25:49.550 ,2,1,0.,12.0,0.,12.0,0.,12.0,0.,12.0
1979-07-03 18:26:01.550 ,2,0,0.,12.0,0.,12.0,0.,12.0,0.,12.0
1979-07-03 18:26:13.550 ,2,0,0.,12.0,0.,12.0,0.,12.0,0.,12.0
1979-07-03 18:26:25.550 ,3,1,0.,12.0,0.,12.0,0.,12.0,0.,12.0
1979-07-03 18:26:37.550 ,3,1,0.,12.0,0.,12.0,0.,12.0,0.,12.0
1979-07-03 18:26:49.550 ,3,0,0.,12.0,0.,12.0,0.,12.0,0.,12.0
1979-07-03 18:27:01.550 ,3,0,0.,12.0,0.,12.0,0.,12.0,0.,12.0
1979-07-03 18:27:13.550 ,4,1,0.,12.0,0.,12.0,0.,12.0,0.,12.0
1979-07-03 18:27:25.550 ,4,1,0.,12.0,0.,12.0,0.,12.0,0.,12.0
1979-07-03 18:27:37.550 ,4,0,0.,12.0,0.,12.0,0.,12.0,0.,12.0
1979-07-03 18:27:49.550 ,4,0,0.,12.0,0.,12.0,0.,12.0,0.,12.0
1979-07-03 18:28:01.550 ,5,1,0.,12.0,0.,12.0,0.,12.0,0.,12.0
1979-07-03 18:28:13.550 ,5,1,0.,12.0,0.,12.0,0.,12.0,0.,12.0
1979-07-03 18:28:25.550 ,5,0,0.,12.0,0.,12.0,0.,12.0,0.,12.0
1979-07-03 18:28:37.550 ,5,0,0.,12.0,0.,12.0,0.,12.0,0.,12.0
1979-07-03 18:28:49.550 ,6,1,0.,12.0,0.,12.0,0.,12.0,0.,12.0
1979-07-03 18:29:01.550 ,6,1,0.,12.0,0.,12.0,0.,12.0,0.,12.0
1979-07-03 18:29:13.550 ,6,0,0.,12.0,0.,12.0,0.,12.0,0.,12.0
1979-07-03 18:29:25.550 ,6,0,0.,12.0,0.,12.0,0.,12.0,0.,12.0
1979-07-03 18:29:37.550 ,7,1,0.,12.0,0.,12.0,0.,12.0,0.,12.0
1979-07-03 18:29:49.550 ,7,1,0.,12.0,0.,12.0,0.,12.0,0.,12.0
1979-07-03 18:30:01.550 ,7,0,0.,12.0,0.,12.0,0.,12.0,0.,12.0
1979-07-03 18:30:13.550 ,7,0,0.,12.0,0.,12.0,0.,12.0,0.,12.0
1979-07-03 18:31:13.550 ,0,0,0.,12.0,0.,12.0,0.,12.0,0.,12.0
1979-07-03 18:31:25.550 ,0,0,0.,12.0,0.,12.0,0.,12.0,0.,12.0
1979-07-03 18:31:37.550 ,0,0,0.,12.0,0.,12.0,0.,12.0,0.,12.0
1979-07-03 18:31:49.550 ,0,0,0.,12.0,0.,12.0,0.,12.0,0.,12.0
1979-07-03 18:32:01.550 ,5,1,0.,12.0,0.,12.0,0.,12.0,0.,12.0
1979-07-03 18:32:13.550 ,5,1,0.,12.0,0.,12.0,0.,12.0,0.,12.0
1979-07-03 18:32:25.550 ,5,0,0.,12.0,0.,12.0,0.,12.0,0.,12.0
1979-07-03 18:32:37.550 ,5,0,0.,12.0,0.,12.0,0.,12.0,0.,12.0
1979-07-03 18:32:49.550 ,4,1,0.,12.0,0.,12.0,0.,12.0,0.,12.0
1979-07-03 18:33:01.550 ,4,1,0.,12.0,0.,12.0,0.,12.0,0.,12.0
1979-07-03 18:33:13.550 ,4,0,0.,12.0,0.,12.0,0.,12.0,0.,12.0
1979-07-03 18:33:25.550 ,4,0,0.,12.0,0.,12.0,0.,12.0,0.,12.0
1979-07-03 18:33:37.550 ,3,1,0.,12.0,0.,12.0,0.,12.0,0.,12.0
1979-07-03 18:33:49.550 ,3,1,0.,12.0,0.,12.0,0.,12.0,0.,12.0
1979-07-03 18:34:01.550 ,3,0,0.,12.0,0.,12.0,0.,12.0,0.,12.0
1979-07-03 18:34:13.550 ,3,0,0.,12.0,0.,12.0,0.,12.0,0.,12.0
1979-07-03 18:34:25.550 ,2,1,0.,12.0,0.,12.0,0.,12.0,0.,12.0
1979-07-03 18:34:37.550 ,2,1,0.,12.0,0.,12.0,0.,12.0,0.,12.0
1979-07-03 18:34:49.550 ,2,0,0.,12.0,0.,12.0,0.,12.0,0.,12.0
1979-07-03 18:35:01.550 ,2,0,0.,12.0,0.,12.0,0.,12.0,0.,12.0
1979-07-03 18:35:13.550 ,1,1,0.,12.0,0.,12.0,0.,12.0,0.,12.0
1979-07-03 18:35:25.550 ,1,1,0.,12.0,0.,12.0,0.,12.0,0.,12.0
1979-07-03 18:35:37.550 ,1,0,0.,12.0,0.,12.0,0.,12.0,0.,12.0
1979-07-03 18:35:49.550 ,1,0,0.,12.0,0.,12.0,0.,12.0,0.,12.0
1979-07-03 18:36:01.550 ,0,1,0.,12.0,0.,12.0,0.,12.0,0.,12.0
1979-07-03 18:36:13.550 ,0,1,0.,12.0,0.,12.0,0.,12.0,0.,12.0
1979-07-03 18:36:25.550 ,0,0,0.,12.0,0.,12.0,0.,12.0,0.,12.0
1979-07-03 18:36:37.550 ,0,0,0.,12.0,0.,12.0,0.,12.0,0.,12.0
1979-07-03 18:36:49.550 ,0,1,0.,12.0,0.,12.0,0.,12.0,0.,12.0
1979-07-03 18:37:01.550 ,0,1,0.,12.0,0.,12.0,0.,12.0,0.,12.0
1979-07-03 18:37:13.550 ,0,0,0.,12.0,0.,12.0,0.,12.0,0.,12.0
1979-07-03 18:37:25.550 ,0,0,0.,12.0,0.,12.0,0.,12.0,0.,12.0
1979-07-03 18:37:37.550 ,1,1,0.,12.0,0.,12.0,0.,12.0,0.,12.0
1979-07-03 18:37:49.550 ,1,1,0.,12.0,0.,12.0,0.,12.0,0.,12.0
1979-07-03 18:38:01.550 ,1,0,0.,12.0,0.,12.0,0.,12.0,0.,12.0
1979-07-03 18:38:13.550 ,1,0,0.,12.0,0.,12.0,0.,12.0,0.,12.0
1979-07-03 18:38:25.550 ,2,1,0.,12.0,0.,12.0,0.,12.0,0.,12.0
1979-07-03 18:38:37.550 ,2,1,0.,12.0,0.,12.0,0.,12.0,0.,12.0
1979-07-03 18:38:49.550 ,2,0,0.,12.0,0.,12.0,0.,12.0,0.,12.0
1979-07-03 18:39:01.550 ,2,0,0.,12.0,0.,12.0,0.,12.0,0.,12.0
1979-07-03 18:39:13.550 ,3,1,0.,12.0,0.,12.0,0.,12.0,0.,12.0
1979-07-03 18:39:25.550 ,3,1,0.,12.0,0.,12.0,0.,12.0,0.,12.0
1979-07-03 18:39:37.550 ,3,0,0.,12.0,0.,12.0,0.,12.0,0.,12.0
1979-07-03 18:39:49.550 ,3,0,0.,12.0,0.,12.0,0.,12.0,0.,12.0
1979-07-03 18:40:01.550 ,4,1,0.,12.0,0.,12.0,0.,12.0,0.,12.0
1979-07-03 18:40:13.550 ,4,1,0.,12.0,0.,12.0,0.,12.0,0.,12.0
1979-07-03 18:40:25.550 ,4,0,0.,12.0,0.,12.0,0.,12.0,0.,12.0
1979-07-03 18:40:37.550 ,4,0,0.,12.0,0.,12.0,0.,12.0,0.,12.0
1979-07-03 18:40:49.550 ,5,1,0.,12.0,0.,12.0,0.,12.0,0.,12.0
1979-07-03 18:41:01.550 ,5,1,0.,12.0,0.,12.0,0.,12.0,0.,12.0
1979-07-03 18:41:13.550 ,5,0,0.,12.0,0.,12.0,0.,12.0,0.,12.0
1979-07-03 18:41:25.550 ,5,0,0.,12.0,0.,12.0,0.,12.0,0.,12.0
1979-07-03 18:41:37.550 ,6,1,0.,12.0,0.,12.0,0.,12.0,0.,12.0
1979-07-03 18:41:49.550 ,6,1,0.,12.0,0.,12.0,0.,12.0,0.,12.0
1979-07-03 18:42:01.550 ,6,0,0.,12.0,0.,12.0,0.,12.0,0.,12.0
1979-07-03 18:42:13.550 ,6,0,0.,12.0,0.,12.0,0.,12.0,0.,12.0
1979-07-03 18:42:25.550 ,7,0,0.,12.0,0.,12.0,0.,12.0,0.,12.0
1979-07-03 18:42:37.550 ,7,0,0.,12.0,0.,12.0,0.,12.0,0.,12.0
1979-07-03 18:42:49.550 ,7,0,0.,12.0,0.,12.0,0.,12.0,0.,12.0
1979-07-03 18:43:01.550 ,7,0,0.,12.0,0.,12.0,0.,12.0,0.,12.0
1979-07-03 18:43:13.550 ,4,1,0.,12.0,0.,12.0,0.,12.0,0.,12.0
1979-07-03 18:43:25.550 ,4,1,0.,12.0,0.,12.0,0.,12.0,0.,12.0
1979-07-03 18:43:37.550 ,0,1,0.,12.0,0.,12.0,0.,12.0,0.,12.0
1979-07-03 18:43:49.550 ,0,1,0.,12.0,0.,12.0,0.,12.0,0.,12.0
1979-07-03 18:44:01.550 ,3,1,0.,12.0,0.,12.0,0.,12.0,0.,12.0
1979-07-03 18:44:13.550 ,3,1,0.,12.0,0.,12.0,0.,12.0,0.,12.0
1979-07-03 18:44:25.550 ,7,1,0.,12.0,0.,12.0,0.,12.0,0.,12.0
1979-07-03 18:44:37.550 ,7,1,0.,12.0,0.,12.0,0.,12.0,0.,12.0
1979-07-03 18:44:49.550 ,4,1,0.,12.0,0.,12.0,0.,12.0,0.,12.0
1979-07-03 18:45:01.550 ,4,1,0.,12.0,0.,12.0,0.,12.0,0.,12.0
1979-07-03 18:45:13.550 ,0,1,0.,12.0,0.,12.0,0.,12.0,0.,12.0
1979-07-03 18:45:25.550 ,0,1,0.,12.0,0.,12.0,0.,12.0,0.,12.0
1979-07-03 18:45:37.550 ,3,1,0.,12.0,0.,12.0,0.,12.0,0.,12.0
1979-07-03 18:45:49.550 ,3,1,0.,12.0,0.,12.0,0.,12.0,0.,12.0
1979-07-03 18:46:01.550 ,7,1,0.,12.0,0.,12.0,0.,12.0,0.,12.0
1979-07-03 18:46:13.550 ,7,1,0.,12.0,0.,12.0,0.,12.0,0.,12.0
1979-07-03 18:46:25.550 ,4,1,0.,12.0,0.,12.0,0.,12.0,0.,12.0
1979-07-03 18:46:37.550 ,4,1,0.,12.0,0.,12.0,0.,12.0,0.,12.0
1979-07-03 18:46:49.550 ,0,1,0.,12.0,0.,12.0,0.,12.0,0.,12.0
1979-07-03 18:47:01.550 ,0,1,0.,12.0,0.,12.0,0.,12.0,0.,12.0
1979-07-03 18:47:13.550 ,3,1,0.,12.0,0.,12.0,0.,12.0,0.,12.0
1979-07-03 18:47:25.550 ,3,1,0.,12.0,0.,12.0,0.,12.0,0.,12.0
1979-07-03 18:47:37.550 ,7,1,0.,12.0,0.,12.0,0.,12.0,0.,12.0
1979-07-03 18:47:49.550 ,7,1,0.,12.0,0.,12.0,0.,12.0,0.,12.0
1979-07-03 18:48:01.550 ,4,1,0.,12.0,0.,12.0,0.,12.0,0.,12.0
1979-07-03 18:48:13.550 ,4,1,0.,12.0,0.,12.0,0.,12.0,0.,12.0
1979-07-03 18:48:25.550 ,0,1,0.,12.0,0.,12.0,0.,12.0,0.,12.0
1979-07-03 18:48:37.550 ,0,1,0.,12.0,0.,12.0,0.,12.0,0.,12.0
1979-07-03 18:48:49.550 ,3,1,0.,12.0,0.,12.0,0.,12.0,0.,12.0
1979-07-03 18:49:01.550 ,3,1,0.,12.0,0.,12.0,0.,12.0,0.,12.0
1979-07-03 18:49:13.550 ,7,1,0.,12.0,0.,12.0,0.,12.0,0.,12.0
1979-07-03 18:49:25.550 ,7,1,0.,12.0,0.,12.0,0.,12.0,0.,12.0
1979-07-03 18:49:37.550 ,4,1,0.,12.0,0.,12.0,0.,12.0,0.,12.0
1979-07-03 18:49:49.550 ,4,1,0.,12.0,0.,12.0,0.,12.0,0.,12.0
1979-07-03 18:50:01.550 ,0,1,0.,12.0,0.,12.0,0.,12.0,0.,12.0
1979-07-03 18:50:13.550 ,0,1,0.,12.0,0.,12.0,0.,12.0,0.,12.0
1979-07-03 18:50:25.550 ,3,1,0.,12.0,0.,12.0,0.,12.0,0.,12.0
1979-07-03 18:50:37.550 ,3,1,0.,12.0,0.,12.0,0.,12.0,0.,12.0
1979-07-03 18:50:49.550 ,7,1,0.,12.0,0.,12.0,0.,12.0,0.,12.0
1979-07-03 18:51:01.550 ,7,1,0.,12.0,0.,12.0,0.,12.0,0.,12.0
1979-07-03 18:51:13.550 ,4,1,0.,12.0,0.,12.0,0.,12.0,0.,12.0
1979-07-03 18:51:25.550 ,4,1,0.,12.0,0.,12.0,0.,12.0,0.,12.0
1979-07-03 18:51:37.550 ,0,1,0.,12.0,0.,12.0,0.,12.0,0.,12.0
1979-07-03 18:51:49.550 ,0,1,0.,12.0,0.,12.0,0.,12.0,0.,12.0
1979-07-03 18:52:01.550 ,3,1,0.,12.0,0.,12.0,0.,12.0,0.,12.0
1979-07-03 18:52:13.550 ,3,1,0.,12.0,0.,12.0,0.,12.0,0.,12.0
1979-07-03 18:52:25.550 ,7,1,0.,12.0,0.,12.0,0.,12.0,0.,12.0
1979-07-03 18:52:37.550 ,7,1,0.,12.0,0.,12.0,0.,12.0,0.,12.0
1979-07-03 18:52:49.550 ,4,1,0.,12.0,0.,12.0,0.,12.0,0.,12.0
1979-07-03 18:53:01.550 ,4,1,0.,12.0,0.,12.0,0.,12.0,0.,12.0
1979-07-03 18:53:13.550 ,0,1,0.,12.0,0.,12.0,0.,12.0,0.,12.0
1979-07-03 18:53:25.550 ,0,1,0.,12.0,0.,12.0,0.,12.0,0.,12.0
1979-07-03 18:53:37.550 ,0,0,0.,12.0,0.,12.0,0.,12.0,0.,12.0
1979-07-03 18:53:49.550 ,0,0,0.,12.0,0.,12.0,0.,12.0,0.,12.0
1979-07-03 18:54:01.550 ,0,0,0.,12.0,0.,12.0,0.,12.0,0.,12.0
1979-07-03 18:54:13.550 ,0,0,0.,12.0,0.,12.0,0.,12.0,0.,12.0
1979-07-03 18:54:25.550 ,5,1,0.,12.0,0.,12.0,0.,12.0,0.,12.0
1979-07-03 18:54:37.550 ,5,1,0.,12.0,0.,12.0,0.,12.0,0.,12.0
1979-07-03 18:54:49.550 ,5,0,0.,12.0,0.,12.0,0.,12.0,0.,12.0
1979-07-03 18:55:01.550 ,5,0,0.,12.0,0.,12.0,0.,12.0,0.,12.0
1979-07-03 18:55:13.550 ,4,1,0.,12.0,0.,12.0,0.,12.0,0.,12.0
1979-07-03 18:55:25.550 ,4,1,0.,12.0,0.,12.0,0.,12.0,0.,12.0
1979-07-03 18:55:37.550 ,4,0,0.,12.0,0.,12.0,0.,12.0,0.,12.0
1979-07-03 18:55:49.550 ,4,0,0.,12.0,0.,12.0,0.,12.0,0.,12.0
1979-07-03 18:56:01.550 ,4,0,1.,12.0,0.,12.0,0.,12.0,0.,12.0
1979-07-03 18:56:13.550 ,4,0,,0,,0,,0,,0
1979-07-03 18:56:25.550 ,3,0,,0,,0,,0,,0
1979-07-03 18:56:37.550 ,3,0,0.,12.0,0.,12.0,0.,12.0,0.,12.0
1979-07-03 18:56:49.550 ,2,1,0.,12.0,0.,12.0,0.,12.0,0.,12.0
1979-07-03 18:57:01.550 ,2,1,0.,12.0,0.,12.0,0.,12.0,0.,12.0
1979-07-03 18:57:13.550 ,2,0,0.,12.0,0.,12.0,0.,12.0,0.,12.0
1979-07-03 18:57:25.550 ,2,0,0.,12.0,0.,12.0,0.,12.0,0.,12.0
1979-07-03 18:57:37.550 ,1,1,0.,12.0,0.,12.0,0.,12.0,0.,12.0
1979-07-03 18:57:49.550 ,1,1,0.,12.0,0.,12.0,0.,12.0,0.,12.0
1979-07-03 18:58:01.550 ,1,0,0.,12.0,0.,12.0,0.,12.0,0.,12.0
1979-07-03 18:58:13.550 ,1,0,0.,12.0,0.,12.0,0.,12.0,0.,12.0
1979-07-03 18:58:25.550 ,0,1,0.,12.0,0.,12.0,0.,12.0,0.,12.0
1979-07-03 18:58:37.550 ,0,1,0.,12.0,0.,12.0,0.,12.0,0.,12.0
1979-07-03 18:58:49.550 ,0,0,0.,12.0,0.,12.0,0.,12.0,0.,12.0
1979-07-03 18:59:01.550 ,0,0,0.,12.0,0.,12.0,0.,12.0,0.,12.0
1979-07-03 18:59:13.550 ,0,1,0.,12.0,0.,12.0,0.,12.0,0.,12.0
1979-07-03 18:59:25.550 ,0,1,0.,12.0,0.,12.0,0.,12.0,0.,12.0
1979-07-03 18:59:37.550 ,0,0,0.,12.0,0.,12.0,0.,12.0,0.,12.0
1979-07-03 18:59:49.550 ,0,0,0.,12.0,0.,12.0,0.,12.0,0.,12.0
1979-07-03 19:00:01.550 ,1,1,0.,12.0,0.,12.0,0.,12.0,0.,12.0
1979-07-03 19:00:13.550 ,1,1,0.,12.0,0.,12.0,0.,12.0,0.,12.0
1979-07-03 19:00:25.550 ,1,0,0.,12.0,0.,12.0,0.,12.0,0.,12.0
1979-07-03 19:00:37.550 ,1,0,0.,12.0,0.,12.0,0.,12.0,0.,12.0
1979-07-03 19:00:49.550 ,2,1,0.,12.0,0.,12.0,0.,12.0,0.,12.0
1979-07-03 19:01:01.550 ,2,1,0.,12.0,0.,12.0,0.,12.0,0.,12.0
1979-07-03 19:01:13.550 ,2,0,0.,12.0,0.,12.0,0.,12.0,0.,12.0
1979-07-03 19:01:25.550 ,2,0,0.,12.0,0.,12.0,0.,12.0,0.,12.0
1979-07-03 19:01:37.550 ,3,1,0.,12.0,0.,12.0,0.,12.0,0.,12.0
1979-07-03 19:01:49.550 ,3,1,0.,12.0,0.,12.0,0.,12.0,0.,12.0
1979-07-03 19:02:01.550 ,3,0,1.,12.0,0.,12.0,0.,12.0,0.,12.0
1979-07-03 19:02:13.550 ,3,0,0.,12.0,0.,12.0,0.,12.0,0.,12.0
1979-07-03 19:02:25.550 ,4,1,0.,12.0,0.,12.0,0.,12.0,0.,12.0
1979-07-03 19:02:37.550 ,4,1,0.,12.0,0.,12.0,0.,12.0,0.,12.0
1979-07-03 19:02:49.550 ,4,0,0.,12.0,0.,12.0,0.,12.0,0.,12.0
1979-07-03 19:03:01.550 ,4,0,0.,12.0,0.,12.0,0.,12.0,0.,12.0
1979-07-03 19:03:13.550 ,5,1,0.,12.0,0.,12.0,0.,12.0,0.,12.0
1979-07-03 19:03:25.550 ,5,1,0.,12.0,0.,12.0,0.,12.0,0.,12.0
1979-07-03 19:03:37.550 ,5,0,0.,12.0,0.,12.0,0.,12.0,0.,12.0
1979-07-03 19:03:49.550 ,5,0,0.,12.0,0.,12.0,0.,12.0,0.,12.0
1979-07-03 19:04:01.550 ,6,1,0.,12.0,0.,12.0,0.,12.0,0.,12.0
1979-07-03 19:04:13.550 ,6,1,0.,12.0,0.,12.0,0.,12.0,0.,12.0
1979-07-03 19:04:25.550 ,6,0,0.,12.0,0.,12.0,0.,12.0,0.,12.0
1979-07-03 19:04:37.550 ,6,0,0.,12.0,0.,12.0,0.,12.0,0.,12.0
1979-07-03 19:04:49.550 ,7,1,0.,12.0,0.,12.0,0.,12.0,0.,12.0
1979-07-03 19:05:01.550 ,7,1,0.,12.0,0.,12.0,0.,12.0,0.,12.0
1979-07-03 19:05:13.550 ,7,0,0.,12.0,0.,12.0,0.,12.0,0.,12.0
1979-07-03 19:05:25.550 ,7,0,0.,12.0,0.,12.0,0.,12.0,0.,12.0
1979-07-03 19:05:37.550 ,7,1,0.,12.0,0.,12.0,0.,12.0,0.,12.0
1979-07-03 19:05:49.550 ,7,1,0.,12.0,0.,12.0,0.,12.0,0.,12.0
1979-07-03 19:06:01.550 ,7,0,0.,12.0,0.,12.0,0.,12.0,0.,12.0
1979-07-03 19:06:13.550 ,7,0,0.,12.0,0.,12.0,0.,12.0,0.,12.0
1979-07-03 19:06:25.550 ,6,1,0.,12.0,0.,12.0,0.,12.0,0.,12.0
1979-07-03 19:06:37.550 ,6,1,0.,12.0,0.,12.0,0.,12.0,0.,12.0
1979-07-03 19:06:49.550 ,6,0,0.,12.0,0.,12.0,0.,12.0,0.,12.0
1979-07-03 19:07:01.550 ,6,0,0.,12.0,0.,12.0,0.,12.0,0.,12.0
1979-07-03 19:07:13.550 ,5,1,0.,12.0,0.,12.0,0.,12.0,0.,12.0
1979-07-03 19:07:25.550 ,5,1,0.,12.0,0.,12.0,0.,12.0,0.,12.0
1979-07-03 19:07:37.550 ,5,0,0.,12.0,0.,12.0,0.,12.0,0.,12.0
1979-07-03 19:07:49.550 ,5,0,0.,12.0,0.,12.0,0.,12.0,0.,12.0
1979-07-03 19:08:01.550 ,4,1,0.,12.0,0.,12.0,0.,12.0,0.,12.0
1979-07-03 19:08:13.550 ,4,1,0.,12.0,0.,12.0,0.,12.0,0.,12.0
1979-07-03 19:08:25.550 ,4,0,0.,12.0,0.,12.0,0.,12.0,0.,12.0
1979-07-03 19:08:37.550 ,4,0,0.,12.0,0.,12.0,0.,12.0,0.,12.0
1979-07-03 19:08:49.550 ,3,1,0.,12.0,0.,12.0,0.,12.0,0.,12.0
1979-07-03 19:09:01.550 ,3,1,0.,12.0,0.,12.0,0.,12.0,0.,12.0
1979-07-03 19:09:13.550 ,3,0,0.,12.0,0.,12.0,0.,12.0,0.,12.0
1979-07-03 19:09:25.550 ,3,0,0.,12.0,0.,12.0,0.,12.0,0.,12.0
1979-07-03 19:09:37.550 ,2,1,0.,12.0,0.,12.0,0.,12.0,0.,12.0
1979-07-03 19:09:49.550 ,2,1,0.,12.0,0.,12.0,0.,12.0,0.,12.0
1979-07-03 19:10:01.550 ,2,0,0.,12.0,0.,12.0,0.,12.0,0.,12.0
1979-07-03 19:10:13.550 ,2,0,0.,12.0,0.,12.0,0.,12.0,0.,12.0
1979-07-03 19:10:25.550 ,1,1,0.,12.0,0.,12.0,0.,12.0,0.,12.0
1979-07-03 19:10:37.550 ,1,1,0.,12.0,0.,12.0,0.,12.0,0.,12.0
1979-07-03 19:10:49.550 ,1,0,0.,12.0,0.,12.0,0.,12.0,0.,12.0
1979-07-03 19:11:01.550 ,1,0,0.,12.0,0.,12.0,0.,12.0,0.,12.0
1979-07-03 19:11:13.550 ,0,1,0.,12.0,0.,12.0,0.,12.0,0.,12.0
1979-07-03 19:11:25.550 ,0,1,0.,12.0,0.,12.0,0.,12.0,0.,12.0
1979-07-03 19:11:37.550 ,0,0,0.,12.0,0.,12.0,0.,12.0,0.,12.0
1979-07-03 19:11:49.550 ,0,0,0.,12.0,0.,12.0,0.,12.0,0.,12.0
1979-07-03 19:12:01.550 ,0,1,0.,12.0,0.,12.0,0.,12.0,0.,12.0
1979-07-03 19:12:13.550 ,0,1,0.,12.0,0.,12.0,0.,12.0,0.,12.0
1979-07-03 19:12:25.550 ,0,0,0.,12.0,0.,12.0,0.,12.0,0.,12.0
1979-07-03 19:12:37.550 ,0,0,0.,12.0,0.,12.0,0.,12.0,0.,12.0
1979-07-03 19:12:49.550 ,1,1,0.,12.0,0.,12.0,0.,12.0,0.,12.0
1979-07-03 19:13:01.550 ,1,1,0.,12.0,0.,12.0,0.,12.0,0.,12.0
1979-07-03 19:13:13.550 ,1,0,0.,12.0,0.,12.0,0.,12.0,0.,12.0
1979-07-03 19:13:25.550 ,1,0,0.,12.0,0.,12.0,0.,12.0,0.,12.0
1979-07-03 19:13:37.550 ,2,1,0.,12.0,0.,12.0,0.,12.0,0.,12.0
1979-07-03 19:13:49.550 ,2,1,0.,12.0,0.,12.0,0.,12.0,0.,12.0
1979-07-03 19:14:01.550 ,2,0,0.,12.0,0.,12.0,0.,12.0,0.,12.0
1979-07-03 19:14:13.550 ,2,0,0.,12.0,0.,12.0,0.,12.0,0.,12.0
1979-07-03 19:14:25.550 ,3,1,0.,12.0,0.,12.0,0.,12.0,0.,12.0
1979-07-03 19:14:37.550 ,3,1,0.,12.0,0.,12.0,0.,12.0,0.,12.0
1979-07-03 19:14:49.550 ,3,0,0.,12.0,0.,12.0,0.,12.0,0.,12.0
1979-07-03 19:15:01.550 ,3,0,0.,12.0,0.,12.0,0.,12.0,0.,12.0
1979-07-03 19:15:13.550 ,4,1,0.,12.0,0.,12.0,0.,12.0,0.,12.0
1979-07-03 19:15:25.550 ,4,1,0.,12.0,0.,12.0,0.,12.0,0.,12.0
1979-07-03 19:15:37.550 ,4,0,0.,12.0,0.,12.0,0.,12.0,0.,12.0
1979-07-03 19:15:49.550 ,4,0,0.,12.0,0.,12.0,0.,12.0,0.,12.0
1979-07-03 19:16:01.550 ,5,1,0.,12.0,0.,12.0,0.,12.0,0.,12.0
1979-07-03 19:16:13.550 ,5,1,0.,12.0,0.,12.0,0.,12.0,0.,12.0
1979-07-03 19:16:25.550 ,5,0,0.,12.0,0.,12.0,0.,12.0,0.,12.0
1979-07-03 19:16:37.550 ,5,0,0.,12.0,0.,12.0,0.,12.0,0.,12.0
1979-07-03 19:16:49.550 ,6,1,0.,12.0,0.,12.0,0.,12.0,0.,12.0
1979-07-03 19:17:01.550 ,6,1,0.,12.0,0.,12.0,0.,12.0,0.,12.0
1979-07-03 19:17:13.550 ,6,0,0.,12.0,0.,12.0,0.,12.0,0.,12.0
1979-07-03 19:17:25.550 ,6,0,0.,12.0,0.,12.0,0.,12.0,0.,12.0
1979-07-03 19:17:37.550 ,7,1,0.,12.0,0.,12.0,0.,12.0,0.,12.0
1979-07-03 19:17:49.550 ,7,1,0.,12.0,0.,12.0,0.,12.0,0.,12.0
1979-07-03 19:18:01.550 ,7,0,0.,12.0,0.,12.0,0.,12.0,0.,12.0
1979-07-03 19:18:13.550 ,7,0,0.,12.0,0.,12.0,0.,12.0,0.,12.0
1979-07-03 19:18:25.550 ,7,1,0.,12.0,0.,12.0,0.,12.0,0.,12.0
1979-07-03 19:18:37.550 ,7,1,0.,12.0,0.,12.0,0.,12.0,0.,12.0
1979-07-03 19:18:49.550 ,7,0,0.,12.0,0.,12.0,0.,12.0,0.,12.0
1979-07-03 19:19:01.550 ,7,0,0.,12.0,0.,12.0,0.,12.0,0.,12.0
1979-07-03 19:19:13.550 ,6,1,0.,12.0,0.,12.0,0.,12.0,0.,12.0
1979-07-03 19:19:25.550 ,6,1,1.,12.0,0.,12.0,0.,12.0,0.,12.0
1979-07-03 19:19:37.550 ,6,0,0.,12.0,0.,12.0,0.,12.0,0.,12.0
1979-07-03 19:19:49.550 ,6,0,0.,12.0,0.,12.0,0.,12.0,0.,12.0
1979-07-03 19:20:01.550 ,5,1,0.,12.0,0.,12.0,0.,12.0,0.,12.0
1979-07-03 19:20:13.550 ,5,1,0.,12.0,0.,12.0,0.,12.0,0.,12.0
1979-07-03 19:20:25.550 ,5,0,0.,12.0,0.,12.0,0.,12.0,1.,12.0
1979-07-03 19:20:37.550 ,5,0,0.,12.0,0.,12.0,0.,12.0,0.,12.0
1979-07-03 19:20:49.550 ,4,1,0.,12.0,0.,12.0,0.,12.0,0.,12.0
1979-07-03 19:21:01.550 ,4,1,0.,12.0,0.,12.0,0.,12.0,0.,12.0
1979-07-03 19:21:13.550 ,4,0,0.,12.0,0.,12.0,0.,12.0,0.,12.0
1979-07-03 19:21:25.550 ,4,0,0.,12.0,0.,12.0,0.,12.0,0.,12.0
1979-07-03 19:21:37.550 ,3,1,0.,12.0,0.,12.0,0.,12.0,0.,12.0
1979-07-03 19:21:49.550 ,3,1,0.,12.0,0.,12.0,0.,12.0,0.,12.0
1979-07-03 19:22:01.550 ,3,0,0.,12.0,0.,12.0,0.,12.0,0.,12.0
1979-07-03 19:22:13.550 ,3,0,0.,12.0,0.,12.0,0.,12.0,0.,12.0
1979-07-03 19:22:25.550 ,2,1,0.,12.0,0.,12.0,0.,12.0,0.,12.0
1979-07-03 19:22:37.550 ,2,1,0.,12.0,0.,12.0,0.,12.0,0.,12.0
1979-07-03 19:22:49.550 ,2,0,0.,12.0,0.,12.0,0.,12.0,0.,12.0
1979-07-03 19:23:01.550 ,2,0,0.,12.0,0.,12.0,0.,12.0,0.,12.0
1979-07-03 19:23:13.550 ,1,1,0.,12.0,0.,12.0,0.,12.0,0.,12.0
1979-07-03 19:23:25.550 ,1,1,0.,12.0,0.,12.0,0.,12.0,0.,12.0
1979-07-03 19:23:37.550 ,1,0,0.,12.0,0.,12.0,0.,12.0,0.,12.0
1979-07-03 19:23:49.550 ,1,0,0.,12.0,0.,12.0,0.,12.0,0.,12.0
1979-07-03 19:24:01.550 ,0,1,0.,12.0,0.,12.0,0.,12.0,0.,12.0
1979-07-03 19:24:13.550 ,0,1,0.,12.0,0.,12.0,0.,12.0,0.,12.0
1979-07-03 19:24:25.550 ,0,0,0.,12.0,0.,12.0,0.,12.0,0.,12.0